GW2280 Weather Reports


Display with metric or nautical units.
time (UTC)temp
F
wind
direction
speed
MPH
gust
MPH
rain 1hr
in
rain 24hr
in
rain mn
in
humidity
%
barometer
mb
20260506111529 58 238 6.0 16.0 0.00 0.00 0.00 84 1011.2
20260506111012 58 229 9.0 16.0 0.00 0.00 0.00 84 1011.4
20260506110515 57 227 6.0 14.0 0.00 0.00 0.00 85 1011.2
20260506110030 57 194 6.0 16.0 0.00 0.00 0.00 84 1011.0
20260506105512 57 213 6.0 16.0 0.00 0.00 0.00 84 1011.1
20260506105013 57 240 9.0 18.0 0.00 0.00 0.00 85 1011.3
20260506104531 57 250 8.0 18.0 0.00 0.00 0.00 84 1011.1
20260506104016 57 194 7.0 14.0 0.00 0.00 0.00 84 1011.1
20260506103512 57 234 6.0 14.0 0.00 0.00 0.00 84 1011.1
20260506103032 57 187 7.0 12.0 0.00 0.00 0.00 84 1011.1
20260506102515 57 194 5.0 14.0 0.00 0.00 0.00 83 1011.1
20260506102011 57 223 7.0 14.0 0.00 0.00 0.00 83 1010.9
20260506101532 57 196 4.0 12.0 0.00 0.00 0.00 83 1010.8
20260506101013 57 188 6.0 14.0 0.00 0.00 0.00 82 1010.8
20260506100514 57 234 6.0 14.0 0.00 0.00 0.00 82 1011.0
20260506100033 57 228 7.0 14.0 0.00 0.00 0.00 83 1011.1
20260506095513 56 205 7.0 14.0 0.00 0.00 0.00 83 1010.9
20260506095011 56 223 8.0 14.0 0.00 0.00 0.00 82 1010.7
20260506094535 56 217 7.0 12.0 0.00 0.00 0.00 82 1010.7
20260506094012 56 200 5.0 15.0 0.00 0.00 0.00 82 1010.7
20260506093513 56 225 7.0 15.0 0.00 0.00 0.00 82 1010.9
20260506093043 56 233 8.0 16.0 0.00 0.00 0.00 82 1010.8
20260506092514 56 230 7.0 16.0 0.00 0.00 0.00 81 1010.8
20260506092014 56 213 7.0 14.0 0.00 0.00 0.00 81 1010.7
20260506091530 57 227 6.0 13.0 0.00 0.00 0.00 81 1010.7
20260506091015 57 227 6.0 12.0 0.00 0.00 0.00 81 1010.7
20260506090513 57 208 7.0 14.0 0.00 0.00 0.00 81 1010.7
20260506090029 57 227 6.0 14.0 0.00 0.00 0.00 81 1010.8
20260506085511 57 225 6.0 14.0 0.00 0.00 0.00 80 1010.7
20260506085011 57 221 6.0 15.0 0.00 0.00 0.00 80 1010.9
20260506084529 57 210 7.0 15.0 0.00 0.00 0.00 79 1010.8
20260506084012 57 211 6.0 12.0 0.00 0.00 0.00 79 1010.8
20260506083514 58 222 5.0 13.0 0.00 0.00 0.00 79 1010.7
20260506083030 58 247 7.0 13.0 0.00 0.00 0.00 79 1010.6
20260506082515 58 217 6.0 12.0 0.00 0.00 0.00 78 1010.6
20260506082014 58 191 6.0 12.0 0.00 0.00 0.00 78 1010.5
20260506081528 58 241 5.0 14.0 0.00 0.00 0.00 78 1010.5
20260506081014 58 219 7.0 14.0 0.00 0.00 0.00 78 1010.5
20260506080515 59 219 7.0 13.0 0.00 0.00 0.00 77 1010.5
20260506073515 58 223 7.0 13.0 0.00 0.00 0.00 78 1010.6
20260506073032 58 242 3.0 11.0 0.00 0.00 0.00 78 1010.7
20260506072512 58 256 3.0 12.0 0.00 0.00 0.00 78 1010.7
20260506072013 59 238 6.0 14.0 0.00 0.00 0.00 77 1010.6
20260506071535 59 233 4.0 14.0 0.00 0.00 0.00 77 1010.4
20260506071013 59 234 7.0 14.0 0.00 0.00 0.00 76 1010.3
20260506070512 59 227 5.0 14.0 0.00 0.00 0.00 76 1010.2
20260506062511 59 220 10.0 20.0 0.00 0.00 0.00 76 1009.8
20260506062014 59 257 8.0 20.0 0.00 0.00 0.00 77 1009.8
20260506061535 59 251 7.0 20.0 0.00 0.00 0.00 77 1009.9
20260506061019 59 205 9.0 19.0 0.00 0.00 0.00 76 1009.9
20260506060514 59 234 7.0 16.0 0.00 0.00 0.00 76 1009.9
20260506051011 60 227 10.0 18.0 0.00 0.00 0.00 76 1010.1
20260506050513 60 211 7.0 15.0 0.00 0.00 0.00 76 1010.1
20260506045011 60 220 8.0 18.0 0.00 0.00 0.00 77 1010.3
20260506044540 60 360 7.0 16.0 0.00 0.00 0.00 77 1010.2
20260506044014 60 232 7.0 15.0 0.00 0.00 0.00 77 1010.2
20260506043517 61 216 7.0 15.0 0.00 0.00 0.00 77 1010.3
20260506043028 61 154 7.0 15.0 0.00 0.00 0.00 76 1010.1
20260506042514 61 360 6.0 16.0 0.00 0.00 0.00 77 1010.2
20260506042013 61 236 7.0 16.0 0.00 0.00 0.00 78 1010.3
20260506041535 61 251 6.0 16.0 0.00 0.00 0.00 78 1010.2
20260506041011 61 360 8.0 16.0 0.00 0.00 0.00 78 1010.3
20260506040511 61 360 7.0 14.0 0.00 0.00 0.00 79 1010.2
20260506040030 61 207 7.0 14.0 0.00 0.00 0.00 79 1010.3
20260506035512 61 225 5.0 11.0 0.00 0.00 0.00 80 1010.3
20260506035011 61 213 5.0 11.0 0.00 0.00 0.00 80 1010.2
20260506034530 61 200 5.0 12.0 0.00 0.00 0.00 79 1010.1
20260506034014 61 207 6.0 17.0 0.00 0.00 0.00 79 1010.0
20260506033514 61 193 7.0 17.0 0.00 0.00 0.00 79 1010.2
20260506033029 61 226 7.0 17.0 0.00 0.00 0.00 79 1010.1
20260506032512 61 175 9.0 16.0 0.00 0.00 0.00 80 1009.9
20260506032014 61 194 7.0 15.0 0.00 0.00 0.00 79 1010.1
20260506031534 61 198 6.0 12.0 0.00 0.00 0.00 80 1010.1
20260506031052 61 201 6.0 13.0 0.00 0.00 0.00 80 1010.1
20260506030511 61 205 5.0 13.0 0.00 0.00 0.00 79 1010.1
20260506030032 61 227 6.0 11.0 0.00 0.00 0.00 79 1010.1
20260506025516 61 207 5.0 10.0 0.00 0.00 0.00 79 1009.9
20260506025011 61 225 5.0 10.0 0.00 0.00 0.00 79 1009.9
20260506024535 61 231 4.0 10.0 0.00 0.00 0.00 78 1009.9
20260506024015 62 216 5.0 10.0 0.00 0.00 0.00 78 1010.0
20260506023513 62 206 5.0 10.0 0.00 0.00 0.00 78 1010.0
20260506023033 62 188 5.0 12.0 0.00 0.00 0.00 78 1010.1
20260506022513 62 225 5.0 12.0 0.00 0.00 0.00 78 1010.1
20260506022012 62 249 5.0 13.0 0.00 0.00 0.00 78 1010.2
20260506021528 62 242 5.0 13.0 0.00 0.00 0.00 78 1010.4
20260506021012 62 226 7.0 13.0 0.00 0.00 0.00 78 1010.4
20260506020511 62 237 6.0 12.0 0.00 0.00 0.00 78 1010.4
20260506020031 62 246 6.0 15.0 0.00 0.00 0.00 78 1010.2
20260506015515 62 269 6.0 15.0 0.00 0.00 0.00 78 1010.2
20260506015012 62 206 6.0 10.0 0.00 0.00 0.00 78 1010.3
20260506014532 62 252 6.0 10.0 0.00 0.00 0.00 78 1010.3
20260506014013 63 279 5.0 10.0 0.00 0.00 0.00 77 1010.4
20260506013513 63 270 4.0 10.0 0.00 0.00 0.00 75 1010.4
20260506013029 64 238 4.0 12.0 0.00 0.00 0.00 76 1010.4
20260506012512 64 255 5.0 15.0 0.00 0.00 0.00 75 1010.3
20260506012015 65 269 7.0 15.0 0.00 0.00 0.00 73 1010.3
20260506011530 65 271 7.0 13.0 0.00 0.00 0.00 70 1010.4
20260506011011 65 258 7.0 12.0 0.00 0.00 0.00 70 1010.5
20260506010514 65 251 6.0 11.0 0.00 0.00 0.00 69 1010.4
20260506010034 65 253 4.0 14.0 0.00 0.00 0.00 69 1010.4
20260506005513 65 237 6.0 14.0 0.00 0.00 0.00 69 1010.3
20260506005015 65 271 9.0 14.0 0.00 0.00 0.00 70 1010.1
20260506004552 65 272 5.0 10.0 0.00 0.00 0.00 71 1010.0
20260506004012 65 246 5.0 10.0 0.00 0.00 0.00 70 1010.0
20260506003512 65 244 4.0 10.0 0.00 0.00 0.00 70 1010.1
20260506003031 66 250 4.0 10.0 0.00 0.00 0.00 70 1009.9
20260506002512 66 250 5.0 10.0 0.00 0.00 0.00 68 1009.8
20260506002012 66 201 4.0 10.0 0.00 0.00 0.00 68 1009.8
20260506001530 66 254 5.0 18.0 0.00 0.00 0.00 68 1009.7
20260506001012 66 243 4.0 18.0 0.00 0.00 0.00 68 1009.6
20260506000513 65 250 8.0 15.0 0.00 0.00 0.00 69 1009.5
20260506000028 65 277 8.0 15.0 0.00 0.00 0.00 69 1009.5
20260505235513 65 261 4.0 10.0 0.00 0.00 0.00 69 1009.4
20260505235017 66 224 4.0 8.0 0.00 0.00 0.00 69 1009.3
20260505234601 66 217 2.0 8.0 0.00 0.00 0.00 68 1009.0
20260505234011 66 0 2.0 8.0 0.00 0.00 0.00 68 1008.9
20260505233512 66 0 3.0 10.0 0.00 0.00 0.00 68 1008.7
20260505233032 66 294 3.0 15.0 0.00 0.00 0.00 68 1008.5
20260505232512 66 311 4.0 15.0 0.00 0.00 0.00 67 1008.3
20260505232011 66 283 6.0 11.0 0.00 0.00 0.00 68 1008.3
20260505231535 67 241 2.0 15.0 0.00 0.00 0.00 67 1008.1
20260505231012 67 292 5.0 15.0 0.00 0.00 0.00 66 1008.1
20260505230518 67 321 5.0 17.0 0.00 0.00 0.00 66 1008.1
20260505230030 67 274 6.0 18.0 0.00 0.00 0.00 66 1008.1
20260505225513 67 336 10.0 26.0 0.00 0.00 0.00 65 1008.2
20260505225014 68 309 10.0 31.0 0.00 0.00 0.00 64 1008.3
20260505224534 68 258 17.0 35.0 0.00 0.00 0.00 62 1008.3
20260505224016 70 360 18.0 35.0 0.00 0.00 0.00 60 1008.3
20260505223512 72 311 15.0 34.0 0.00 0.00 0.00 54 1008.0
20260505223029 76 277 17.0 34.0 0.00 0.00 0.00 47 1007.8
20260505222513 77 273 14.0 36.0 0.00 0.00 0.00 40 1007.1
20260505222011 77 211 14.0 37.0 0.00 0.00 0.00 39 1006.5
20260505221529 77 239 15.0 37.0 0.00 0.00 0.00 38 1006.3
20260505221011 78 218 13.0 32.0 0.00 0.00 0.00 38 1006.4
20260505220512 77 237 11.0 32.0 0.00 0.00 0.00 38 1006.3
20260505220030 77 202 11.0 32.0 0.00 0.00 0.00 38 1006.1
20260505215512 76 224 16.0 32.0 0.00 0.00 0.00 39 1006.3
20260505215014 75 238 11.0 24.0 0.00 0.00 0.00 41 1005.9
20260505214538 75 246 7.0 18.0 0.00 0.00 0.00 46 1006.1
20260505214011 75 227 8.0 18.0 0.00 0.00 0.00 48 1006.1
20260505213516 76 157 7.0 16.0 0.00 0.00 0.00 47 1006.0
20260505213029 77 195 7.0 19.0 0.00 0.00 0.00 46 1005.9
20260505212514 77 167 8.0 19.0 0.00 0.00 0.00 46 1005.8
20260505212012 77 236 4.0 16.0 0.00 0.00 0.00 46 1005.9
20260505211530 77 196 8.0 24.0 0.00 0.00 0.00 45 1005.9
20260505211015 78 212 8.0 24.0 0.00 0.00 0.00 45 1005.7
20260505210517 78 182 9.0 24.0 0.00 0.00 0.00 45 1005.7
20260505210031 78 156 6.0 24.0 0.00 0.00 0.00 45 1005.7
20260505205512 78 169 11.0 24.0 0.00 0.00 0.00 46 1005.7
20260505205012 78 176 8.0 21.0 0.00 0.00 0.00 45 1005.5
20260505204530 78 188 9.0 19.0 0.00 0.00 0.00 45 1005.7
20260505204012 79 172 9.0 26.0 0.00 0.00 0.00 44 1005.7
20260505203513 80 182 7.0 26.0 0.00 0.00 0.00 43 1005.6
20260505203029 81 245 11.0 26.0 0.00 0.00 0.00 38 1005.7
20260505202514 81 188 8.0 30.0 0.00 0.00 0.00 39 1005.7
20260505202011 81 237 16.0 35.0 0.00 0.00 0.00 36 1005.7
20260505201532 81 223 15.0 35.0 0.00 0.00 0.00 36 1005.7
20260505201013 81 212 15.0 28.0 0.00 0.00 0.00 36 1005.8
20260505200513 81 220 13.0 28.0 0.00 0.00 0.00 37 1005.8
20260505200035 81 214 15.0 28.0 0.00 0.00 0.00 38 1005.8
20260505195513 81 202 15.0 29.0 0.00 0.00 0.00 37 1006.0
20260505195012 81 271 14.0 29.0 0.00 0.00 0.00 38 1006.0
20260505194530 81 262 12.0 27.0 0.00 0.00 0.00 39 1006.1
20260505194011 80 229 11.0 33.0 0.00 0.00 0.00 39 1006.0
20260505193513 80 229 16.0 33.0 0.00 0.00 0.00 40 1006.1
20260505193030 80 262 14.0 31.0 0.00 0.00 0.00 39 1006.2
20260505192515 80 257 16.0 31.0 0.00 0.00 0.00 38 1006.2
20260505192012 79 209 17.0 31.0 0.00 0.00 0.00 39 1006.5
20260505191531 79 160 14.0 31.0 0.00 0.00 0.00 40 1006.4
20260505191017 79 221 14.0 31.0 0.00 0.00 0.00 40 1006.6
20260505190513 80 192 16.0 30.0 0.00 0.00 0.00 40 1006.4
20260505190031 79 227 11.0 25.0 0.00 0.00 0.00 41 1006.7
20260505185514 79 206 10.0 22.0 0.00 0.00 0.00 41 1006.9
20260505185016 79 238 9.0 27.0 0.00 0.00 0.00 41 1007.0
20260505184532 79 196 9.0 28.0 0.00 0.00 0.00 42 1007.1
20260505184014 80 125 9.0 28.0 0.00 0.00 0.00 41 1007.1
20260505183513 80 243 12.0 23.0 0.00 0.00 0.00 40 1007.1
20260505183043 81 164 10.0 31.0 0.00 0.00 0.00 39 1007.1
20260505182512 80 247 14.0 31.0 0.00 0.00 0.00 40 1007.1
20260505182014 80 234 16.0 30.0 0.00 0.00 0.00 39 1007.1
20260505181529 80 207 13.0 30.0 0.00 0.00 0.00 39 1007.1
20260505181015 81 179 14.0 30.0 0.00 0.00 0.00 38 1007.1
20260505180512 81 219 12.0 28.0 0.00 0.00 0.00 39 1007.2
20260505180032 82 199 12.0 33.0 0.00 0.00 0.00 38 1007.2
20260505175515 82 198 9.0 33.0 0.00 0.00 0.00 39 1007.3
20260505175014 81 300 14.0 29.0 0.00 0.00 0.00 38 1007.3
20260505174532 81 221 16.0 32.0 0.00 0.00 0.00 38 1007.5
20260505174011 80 219 13.0 32.0 0.00 0.00 0.00 41 1007.5
20260505173511 80 242 13.0 26.0 0.00 0.00 0.00 40 1007.6
20260505173038 80 204 14.0 25.0 0.00 0.00 0.00 41 1007.6
20260505172513 80 194 9.0 24.0 0.00 0.00 0.00 42 1007.5
20260505172013 80 180 12.0 24.0 0.00 0.00 0.00 41 1007.7
20260505171533 80 214 11.0 26.0 0.00 0.00 0.00 41 1007.9
20260505171012 79 265 13.0 26.0 0.00 0.00 0.00 42 1007.7
20260505170513 78 229 15.0 31.0 0.00 0.00 0.00 44 1007.9
20260505170035 78 227 14.0 31.0 0.00 0.00 0.00 42 1008.1
20260505165513 79 231 13.0 23.0 0.00 0.00 0.00 41 1008.2
20260505165013 79 251 8.0 28.0 0.00 0.00 0.00 43 1008.5
20260505164529 78 205 10.0 31.0 0.00 0.00 0.00 44 1008.4
20260505164013 78 223 17.0 31.0 0.00 0.00 0.00 43 1008.6
20260505163514 78 249 13.0 28.0 0.00 0.00 0.00 43 1008.9
20260505163027 77 222 17.0 28.0 0.00 0.00 0.00 43 1009.0
20260505162512 77 244 11.0 37.0 0.00 0.00 0.00 44 1009.1
20260505162012 77 211 14.0 37.0 0.00 0.00 0.00 44 1009.1
20260505161532 76 233 9.0 23.0 0.00 0.00 0.00 45 1009.2
20260505161013 76 236 13.0 25.0 0.00 0.00 0.00 46 1009.3
20260505160513 76 209 9.0 27.0 0.00 0.00 0.00 48 1009.4
20260505153030 73 212 7.0 23.0 0.00 0.00 0.00 48 1009.8
20260505152511 73 228 11.0 23.0 0.00 0.00 0.00 49 1010.0
20260505152012 73 225 7.0 20.0 0.00 0.00 0.00 50 1009.9
20260505151528 72 231 11.0 20.0 0.00 0.00 0.00 50 1010.1
20260505151011 72 191 11.0 18.0 0.00 0.00 0.00 50 1010.1
20260505150512 72 225 8.0 17.0 0.00 0.00 0.00 50 1010.0
20260505140517 65 216 8.0 17.0 0.00 0.00 0.00 58 1010.1
20260505125014 60 259 5.0 12.0 0.00 0.00 0.00 66 1010.3
20260505124543 59 360 7.0 15.0 0.00 0.00 0.00 66 1010.4
20260505124014 58 248 5.0 15.0 0.00 0.00 0.00 67 1010.3
20260505123520 58 282 5.0 16.0 0.00 0.00 0.00 67 1010.3
20260505123033 58 360 9.0 20.0 0.00 0.00 0.00 66 1010.2
20260505122513 58 360 9.0 20.0 0.00 0.00 0.00 66 1010.2
20260505122018 58 360 11.0 20.0 0.00 0.00 0.00 66 1010.0
20260505121532 58 317 8.0 16.0 0.00 0.00 0.00 67 1010.0
20260505121013 57 199 8.0 16.0 0.00 0.00 0.00 67 1009.8
20260505120513 56 209 6.0 14.0 0.00 0.00 0.00 68 1009.8
20260505120038 56 257 5.0 15.0 0.00 0.00 0.00 69 1009.9
20260505115513 55 215 7.0 15.0 0.00 0.00 0.00 69 1009.8
20260505115013 55 216 7.0 16.0 0.00 0.00 0.00 70 1009.9
20260505114531 54 213 8.0 16.0 0.00 0.00 0.00 71 1010.0
20260505114013 54 240 8.0 16.0 0.00 0.00 0.00 71 1009.9
20260505113514 53 0 6.0 15.0 0.00 0.00 0.00 72 1010.0
20260505113033 53 281 6.0 15.0 0.00 0.00 0.00 73 1010.1
20260505112510 53 215 9.0 15.0 0.00 0.00 0.00 73 1010.0
20260505112012 52 214 8.0 17.0 0.00 0.00 0.00 74 1010.1